Home > Weather > Darlington > Past weeks

Flag for United Kingdom Weather for the Past 2 Weeks in Darlington, England, United Kingdom

Now
43 °F

Passing clouds.


Feels Like: 36 °F
Forecast: 38 / 54 °F
Wind: 13 mph from West

Location: Tees-Side

Current Time: Apr 30, 2016 at 9:00:33 AM

Latest Report: Apr 30, 2016 at 8:20 AM


Visibility: N/A

Pressure: 30.04 "Hg

Humidity: 71%

Dew Point: 34 °F

Location of DarlingtonLocation

Historic Weather in Darlington — Graph

°F

Darlington Temperature Yesterday

Maximum temperature yesterday: 45 °F (at 1:20 PM)
Minimum temperature yesterday: 37 °F (at 5:50 AM)
Average temperature yesterday: 41 °F

High & Low Weather Summary for the Past Weeks

 TemperatureHumidityPressure
High64 °F (Apr 21, 3:20 PM)93% (Apr 15, 8:50 AM)30.48 "Hg (Apr 15, 8:50 AM)
Low28 °F (Apr 28, 5:50 AM)36% (Apr 21, 1:50 PM)29.50 "Hg (Apr 29, 5:50 AM)
Average45 °F68%29.98 "Hg
* Reported Apr 15 7:50 AM — Apr 30 7:50 AM, Darlington, Weather by CustomWeather, © 2016

Note: Actual official high and low records may vary slightly from our data, if they occured in-between our weather recording intervals... More about our weather records

Advertising

Darlington Weather History for the Previous 24 Hours

Scroll right to see more
 ConditionsComfort  
Time TempWeatherWind HumidityBarometerVisibility
7:50 AM
Sat, Apr 30
39 °FScattered clouds.6 mph75%30.04 "HgN/A
7:20 AM39 °FScattered clouds.3 mph75%30.04 "HgN/A
6:50 AM37 °FSunny.2 mph81%30.04 "Hg10 mi
6:20 AM36 °FClear.7 mph81%30.01 "Hg10 mi
5:50 AM34 °FClear.8 mph87%30.01 "Hg10 mi
9:50 PM
Fri, Apr 29
39 °FPassing clouds.10 mph81%29.86 "HgN/A
9:20 PM41 °FPassing clouds.13 mph76%29.86 "HgN/A
8:50 PM41 °FPassing clouds.15 mph81%29.83 "HgN/A
8:20 PM43 °FPassing clouds.17 mph76%29.80 "HgN/A
7:50 PM43 °FScattered clouds.16 mph76%29.80 "HgN/A
7:20 PM41 °FScattered clouds.14 mph81%29.80 "HgN/A
6:50 PM43 °FScattered clouds.22 mph76%29.77 "HgN/A
6:20 PM43 °FScattered clouds.20 mph76%29.74 "HgN/A
5:50 PM43 °FScattered clouds.17 mph76%29.74 "HgN/A
5:20 PM43 °FScattered showers. Scattered clouds.21 mph81%29.71 "HgN/A
4:50 PM41 °FSprinkles. Partly sunny.17 mph87%29.68 "Hg5 mi
4:20 PM41 °FLight rain. Partly sunny.10 mph87%29.68 "HgN/A
3:50 PM43 °FRain showers. Partly sunny.21 mph76%29.65 "Hg4 mi
3:20 PM43 °FScattered clouds.14 mph76%29.62 "HgN/A
2:50 PM41 °FBroken clouds.16 mph81%29.62 "HgN/A
2:20 PM41 °FBroken clouds.22 mph81%29.59 "HgN/A
1:50 PM41 °FBroken clouds.21 mph81%29.56 "HgN/A
1:20 PM45 °FScattered showers. Partly sunny.17 mph71%29.53 "HgN/A
12:50 PM43 °FPartly sunny.20 mph81%29.53 "HgN/A
12:20 PM41 °FLight rain. Partly sunny.18 mph81%29.50 "HgN/A
11:50 AM39 °FLight rain. Partly sunny.14 mph87%29.50 "HgN/A
11:20 AM39 °FLight rain. Partly sunny.20 mph81%29.50 "Hg5 mi
10:50 AM39 °FLight rain. Partly sunny.17 mph81%29.50 "Hg5 mi
10:20 AM43 °FSprinkles. Partly sunny.17 mph66%29.50 "HgN/A
9:50 AM41 °FPartly sunny.16 mph70%29.50 "HgN/A
9:20 AM39 °FBroken clouds.15 mph81%29.50 "HgN/A
Weather by CustomWeather, © 2016

See weather overviewHow to use our weather pages